Hourly Data Report for October 02, 2013

All times are specified in Local Standard Time (LST). Add 1 hour to adjust for Daylight Saving Time where and when it is observed.

ARVIAT A
NUNAVUT

61°05'38.000" N
94°04'18.000" W
10.40 m
2300427
71174
YEK

Download Data

Hourly Data (October 2013)
Hourly Data Report for October 2, 2013
Temp Definition
°C
Dew Point Temp Definition
°C
Rel Hum Definition
%
Wind Dir Definition
10's deg

Wind Spd Definition
km/h
Visibility Definition
km
Stn Press Definition
kPa
Hmdx Definition


Wind Chill Definition


Weather Definition


TIME
00:00 Legend Double Dagger -1.1 -3.2 86 36 26 16.1 100.82   -7 LegendNANA
01:00 Legend Double Dagger -1.2 -3.2 87 36 22 16.1 100.85   -7 LegendNANA
02:00 Legend Double Dagger -1.4 -3.7 84 36 24 16.1 100.90   -8 LegendNANA
03:00 Legend Double Dagger -1.4 -4.3 80 36 30 16.1 100.92   -8 LegendNANA
04:00 Legend Double Dagger -1.3 -3.4 86 34 26 16.1 100.94   -8 LegendNANA
05:00 Legend Double Dagger -1.4 -2.4 93 34 28 16.1 100.96   -8 LegendNANA
06:00 Legend Double Dagger -1.2 -3.7 83 35 30 16.1 100.98   -8 LegendNANA
07:00 Legend Double Dagger -1.5 -3.9 84 35 30 16.1 101.00   -8 LegendNANA
08:00 Legend Double Dagger -1.7 -3.6 87 35 32 16.1 101.03   -9 LegendNANA
09:00 Legend Double Dagger -1.6 -3.8 85 36 28 16.1 101.08   -8 LegendNANA
10:00 Legend Double Dagger -1.1 -4.0 81 35 30 16.1 101.12   -8 LegendNANA
11:00 Legend Double Dagger -0.8 -3.6 82 35 26 16.1 101.16   -7 LegendNANA
12:00 Legend Double Dagger -0.7 -3.3 83 35 28 16.1 101.18   -7 LegendNANA
13:00 Legend Double Dagger -0.6 -2.5 87 35 26 11.3 101.22   -7 LegendNANA
14:00 Legend Double Dagger -0.7 -2.8 86 34 28 16.1 101.23   -7 LegendNANA
15:00 Legend Double Dagger -0.5 -3.4 81 35 30 16.1 101.26   -7 LegendNANA
16:00 Legend Double Dagger 0.2 -3.2 78 36 22 16.1 101.27     LegendNANA
17:00 Legend Double Dagger 0.3 -3.6 75 36 24 16.1 101.28     LegendNANA
18:00 Legend Double Dagger 0.4 -2.6 81 1 26 16.1 101.30     LegendNANA
19:00 Legend Double Dagger 0.8 -2.4 79 36 24 16.1 101.33     LegendNANA
20:00 Legend Double Dagger 0.6 -2.2 81 35 28 16.1 101.36     LegendNANA
21:00 Legend Double Dagger 0.4 -2.5 81 35 26 16.1 101.38     LegendNANA
22:00 Legend Double Dagger 0.4 -2.3 82 36 26 16.1 101.40     LegendNANA
23:00 Legend Double Dagger 0.7 -2.4 80 35 26 16.1 101.41     LegendNANA

Notes on Data Quality.

Legend

  • E = Estimated
  • M = Missing
  • NA = Not Available
  • ‡ = Partner data that is not subject to review by the National Climate Archives
Date modified: